Content
SEND FEEDBACK

Daily
Averages
Monthly
Summary
United States of America

ST. LOUIS - SAINT LOUIS UNIVERSITY, MISSOURI


Home > North America > United States > Missouri
Elevation: 580 feet     Latitude: 38 38N     Longitude: 090 14W

WEATHER
 
SELECT A DAY
Number of Records: 190,897;   Date Range: 1/1/95 - 12/24/14
 
SHARE

PRINT THIS DATA

[ ← Previous Day ]
WEATHER ALMANAC - JANUARY 5, 2013
[ Next Day → ]
[ °C ]   °F
Weather ElementAverageHighLow
Temperature35.5 °F43 °F (2:53 pm)24.1 °F (2:53 am)
Dewpoint24.4 °F28 °F (4:53 pm)18 °F (2:53 am)
Humidity65.1 %81 % (5:53 am)51 % (2:53 pm)
Barometer30.25 in30.34 in (9:53 am)30.15 in (9:53 pm)
Wind Speed3.6 mph10.4 mph (2:53 pm)
Weather ElementAverage
Visibility9.9 mi
Wind DirectionESE (124.5 °)

Weather ElementTotal
Precipitation---
Heating Degree Days31.5 (Base 65)
Averaged from 20 records on January 5, 2013
WEATHER CONDITIONS BREAKOUT
WIND DIRECTION BREAKOUT
WEATHER BY HOUR - JANUARY 5, 2013
[ °C ]   °F
Local TimeTemperatureDewpointHumidityBarometerVisibilityWind DirectionWind SpeedGust SpeedPrecipitationEventsConditions
2:53 AM24.1 °F18.0 °F77 %30.33 in10.0 miCalmClear
3:53 AM28.0 °F19.9 °F72 %30.32 in10.0 miSouth (190°)3.5 mphClear
4:53 AM25.0 °F19.0 °F78 %30.31 in10.0 miCalmClear
5:53 AM24.1 °F19.0 °F81 %30.32 in10.0 miCalmClear
6:53 AM26.1 °F21.0 °F81 %30.32 in10.0 miCalmClear
7:53 AM28.0 °F21.9 °F78 %30.32 in10.0 miCalmClear
8:53 AM33.1 °F24.1 °F70 %30.33 in8.0 miCalmMostly Cloudy
9:53 AM36.0 °F24.1 °F62 %30.34 in10.0 miSSW (200°)3.5 mphOvercast
10:53 AM39.0 °F24.1 °F55 %30.31 in10.0 miSW (230°)4.6 mphOvercast
11:53 AM39.9 °F26.1 °F58 %30.27 in10.0 miSW (220°)5.8 mphOvercast
12:53 PM41.0 °F26.1 °F55 %30.22 in10.0 miSSW (200°)4.6 mphOvercast
1:53 PM42.1 °F26.1 °F53 %30.18 in10.0 miSouth (180°)5.8 mphOvercast
2:53 PM43.0 °F26.1 °F51 %30.18 in10.0 miSouth (170°)10.4 mphOvercast
4:53 PM39.9 °F28.0 °F63 %30.17 in10.0 miSSE (160°)5.8 mphOvercast
5:53 PM39.0 °F28.0 °F65 %30.18 in10.0 miSouth (170°)4.6 mphOvercast
6:53 PM39.9 °F27.0 °F60 %30.18 in10.0 miSouth (180°)3.5 mphOvercast
7:53 PM37.9 °F28.0 °F68 %30.17 in10.0 miSSE (160°)3.5 mphOvercast
8:53 PM39.0 °F27.0 °F62 %30.16 in10.0 miCalmOvercast
9:53 PM42.1 °F27.0 °F55 %30.15 in10.0 miSSW (210°)8.1 mphOvercast
10:53 PM42.1 °F28.0 °F58 %30.15 in10.0 miSW (220°)9.2 mphOvercast
Hourly data recorded from KCPS, located miles away from St. Louis - Saint Louis University, Missouri







STORIES FROM OUR PARTNERS